This is the latest recevied weather packets stored in our database for station/object KD8UYA. If no packets are shown the sender has not sent any weather packets the latest 10 day(s).
| Time | Temp. | Humidity | Pressure | Rain* | Wind** | Luminosity | Snow |
|---|---|---|---|---|---|---|---|
| 1778183121 | 12.22° C | 52% | 1010 hPa | 0 mm | - | - | - |
| 1778182207 | 12.22° C | 55% | 1010.2 hPa | 0 mm | - | - | - |
| 1778181304 | 12.22° C | 53% | 1010.2 hPa | 0 mm | - | - | - |
| 1778180476 | 12.22° C | 57% | 1010.2 hPa | 0 mm | - | - | - |
| 1778179502 | 12.22° C | 54% | 1010.4 hPa | 0 mm | - | - | - |
| 1778178676 | 12.22° C | 56% | 1010.4 hPa | 0 mm | - | - | - |
| 1778177761 | 12.78° C | 55% | 1010.5 hPa | 0 mm | - | - | - |
| 1778176864 | 11.67° C | 58% | 1010.5 hPa | 0 mm | - | - | - |
| 1778175963 | 11.67° C | 57% | 1010.5 hPa | 0 mm | - | - | - |
| 1778175063 | 12.22° C | 58% | 1010.6 hPa | 0 mm | - | - | - |
| 1778174153 | 11.67° C | 57% | 1010.6 hPa | 0 mm | - | - | - |
| 1778173253 | 11.67° C | 55% | 1010.7 hPa | 0 mm | - | - | - |
| 1778172385 | 11.67° C | 57% | 1010.7 hPa | 0 mm | - | - | - |
| 1778171453 | 11.67° C | 60% | 1010.7 hPa | 0 mm | - | - | - |
| 1778170555 | 11.67° C | 56% | 1010.8 hPa | 0 mm | - | - | - |
| 1778169646 | 11.67° C | 56% | 1010.8 hPa | 0 mm | - | - | - |
| 1778168742 | 11.11° C | 58% | 1010.9 hPa | 0 mm | - | - | - |
| 1778167842 | 10.56° C | 61% | 1010.9 hPa | 0 mm | - | - | - |
| 1778166938 | 11.11° C | 62% | 1011 hPa | 0 mm | - | - | - |
| 1778166038 | 10.56° C | 64% | 1011.2 hPa | 0 mm | - | - | - |
| 1778165137 | 10.56° C | 63% | 1011.1 hPa | 0 mm | - | - | - |
| 1778164237 | 10.56° C | 61% | 1011 hPa | 0 mm | - | - | - |
| 1778163334 | 10.56° C | 60% | 1011.2 hPa | 0 mm | - | - | - |
| 1778162430 | 10° C | 60% | 1011.2 hPa | 0 mm | - | - | - |
| 1778161526 | 10° C | 68% | 1011.5 hPa | 0 mm | - | - | - |
* Rain latest hour (hover to see other rain measurements)
** Current wind speed in m/s (hover to see current wind gust speed)